Location: Unspecified
(0.0000°N, 0.0000°E)
Time: 20:44:17
(UTC+02:00)

Ariane H10 - Visible Passes

Search period start: 26 March 2017 00:00
Search period end: 05 April 2017 01:00
Orbit: 407 x 35079 km, 3.9° (Epoch: 24 March)

Date Brightness Start Highest point End Pass type
(mag) Time Alt. Az. Time Alt. Az. Time Alt. Az.
26 Mar 7.5 05:59:31 38° W 06:48:38 87° N 15:38:08 10° E visible
27 Mar 8.0 02:42:29 47° E 02:42:29 47° E 12:04:07 10° E visible
29 Mar 7.1 06:29:55 26° W 08:12:13 84° WNW 16:09:56 10° E visible
30 Mar 7.8 03:12:53 62° ENE 03:12:53 62° ENE 12:38:29 10° E visible
31 Mar 12.5 05:30:28 10° E 07:20:02 17° E 08:25:22 10° E visible
01 Apr 6.7 07:00:17 16° W 08:45:07 72° W 16:41:35 10° E visible
02 Apr 7.6 03:43:16 78° NE 03:43:16 78° NE 13:11:58 10° E visible
03 Apr 11.6 04:37:34 10° E 07:51:04 27° E 09:17:37 10° E visible
03 Apr 2.6 20:30:41 10° W 20:36:02 88° N 20:38:25 12° E visible
04 Apr 6.3 07:32:16 10° W 09:18:33 61° W 17:13:03 10° E visible
